CZ-6A DEB, 61474

Orbit data source: Space-Track

CZ-6A DEB, 61474 is space debris in LEO originally from a launch on Tue, 06 Aug 2024 UTC launched from the Taiyaun Space Center, China (TSC). Debris objects in space refer to the collection of defunct objects orbiting the Earth. Examples of debris include non-operational satellites, rocket bodies, and fragments generated from explosions, collisions, or faulty payload assembly.

Loading next visibility...
CZ-6A DEB details
Identifier
61474, 2024-140AAG
Orbit
LEO
Last TLE update1 day ago
Origin
Flag of CNCNSA (CN / PRC)
ManufacturerSAST
MissionSpacecraft
Bus & MotorUnknown
MassUnknown
Launch date (UTC)
2024-08-06 (6 months ago)
Launch vehicleUnknown
Launch site
Taiyaun Space Center, China (TSC)
Object type
Payload
Rocket body
Debris
Shape & HBRUnknown
Radar Cross SectionSmall (<0.1 m²)

Expand to show TLE details & history

TLE from 1 day ago
0 CZ-6A DEB
1 61474U 24140AAG 25035.06806808  .00005976  00000-0  15366-2 0  9994
2 61474  88.8323 325.9683 0126831 217.5806 141.6486 14.45330589 22053
Epoch: 2025-02-04T01:38Z
Definitive object data (Epoch: 2025-02-04T01:38:01.082Z)
Latitude0.00004°
Longitude166.98512°
Altitude815.288 km
Speed7.408 km/s
True Right ascension21h 43m 52s
True Declination0° 00' 00"
Sunlit
Object was in daylight at TLE epoch
Visualization TLE readout
Latitude-40.40494°
Longitude-12.19443°
Altitude666.772 km
Speed7.57 km/s
Apparent Right ascension13h 52m 00s
Apparent Declination-81° 51' 45"
Sunlit
Object is in full shadow
Visualization observer readout
Local Sidereal Time08:56:13
Azimuth170.161° S
Elevation-37.242°
Doppler factor1
Orbital elements
Apogee altitude828.108 km
Perigee altitude647.603 km
Semi-major axis7,115.993 km
Eccentricity0.0126831
Inclination88.8323°
RAAN325.9683°
Arg. of periapsis217.5806°
True anomaly142.53928°
Mean anomaly141.6486°
Eccentric anomaly142.09504°
Mean motion3.61568 °/min
BSTAR0.0015366
Orbital period99.57 mins
Loading maneuver chart data...
Loading historical data...
Loading historical data...
Loading historical data...
Loading historical data...
Loading historical data...
Loading historical data...
Loading historical data...

CZ-6A DEB Visibility forecast

Observer location: undefined°, undefined

Span
Click to sort rows by Start time (UTC) header in descending order
Start Az.
Max El. time (UTC)
Max El. Az.
Max El.
End time (UTC)
End Az.
8 mins2025-02-05 08:07:58.427Z341.185° N2025-02-05 08:11:58.427Z271.314° WNW31.963°2025-02-05 08:15:58.427Z210.787° SW
9 mins2025-02-05 19:17:58.427Z158.384° S2025-02-05 19:21:58.427Z76.003° E40.323°2025-02-05 19:26:58.427Z7.85° NNE
5 mins2025-02-05 20:59:58.427Z258.004° W2025-02-05 21:01:58.427Z283.79° WNW16.456°2025-02-05 21:04:58.427Z318.841° NNW
|